Location: Newark
(18.7969°S, 47.4789°E)
Time: 10:37:54
(UTC+00:00)

Hubble Space Telescope - Visible Passes

Search period start: 27 January 2020 00:00
Search period end: 06 February 2020 00:00
Orbit: 536 x 540 km, 28.5° (Epoch: 25 January)

Date Brightness Start Highest point End Pass type
(mag) Time Alt. Az. Time Alt. Az. Time Alt. Az.
27 Jan 2.5 16:29:24 10° WSW 16:33:05 29° SSW 16:36:44 10° SE visible
27 Jan 3.6 18:11:41 10° SW 18:12:59 16° SW 18:12:59 16° SW visible
28 Jan 2.7 16:19:03 10° WSW 16:22:34 26° S 16:26:05 10° SE visible
28 Jan 3.4 18:01:11 10° SW 18:03:00 18° SSW 18:03:00 18° SSW visible
29 Jan 2.8 16:08:41 10° WSW 16:12:04 24° S 16:15:28 10° SE visible
29 Jan 3.1 17:50:37 10° SW 17:52:56 20° SSW 17:52:56 20° SSW visible
30 Jan 2.9 15:58:17 10° WSW 16:01:35 22° S 16:04:53 10° SE visible
30 Jan 2.8 17:40:02 10° SW 17:42:49 23° S 17:42:49 23° S visible
31 Jan 2.9 15:47:53 10° SW 15:51:07 21° S 15:54:20 10° SE visible
31 Jan 2.5 17:29:24 10° SW 17:32:40 26° S 17:32:40 26° S visible
01 Feb 2.2 17:18:45 10° SW 17:22:25 29° SSE 17:22:29 29° SSE visible
02 Feb 1.9 17:08:04 10° SW 17:11:54 34° SSE 17:12:19 33° SSE visible
03 Feb 1.6 16:57:24 10° SW 17:01:22 41° SSE 17:02:10 36° SE visible
04 Feb 1.3 16:46:44 10° WSW 16:50:48 51° SSE 16:52:02 37° ESE visible
05 Feb 0.9 16:36:04 10° WSW 16:40:14 65° SSE 16:41:56 33° E visible
